GW1990 Weather Reports


time (UTC)temp
C
wind
direction
speed
KPH
gust
KPH
rain 1hr
cm
rain 24hr
cm
rain mn
cm
humidity
%
barometer
mb
20260504110618 15 121 1.6 3.2 0.00 0.43 0.43 91 993.2
20260504110114 15 147 1.6 3.2 0.00 0.43 0.43 92 993.4
20260504100540 14 100 3.2 3.2 0.00 0.43 0.43 97 993.2
20260504081933 14 89 3.2 3.2 0.00 0.43 0.43 97 994.3
20260504081430 14 96 1.6 1.6 0.00 0.43 0.43 97 994.1
20260504080926 14 89 1.6 1.6 0.00 0.43 0.43 97 993.8
20260504080423 14 88 1.6 3.2 0.00 0.43 0.43 97 993.9
20260504070351 14 49 0.0 0.0 0.00 0.43 0.43 97 995.3
20260504050738 16 64 0.0 1.6 0.00 0.00 0.00 70 993.6
20260504050235 16 68 0.0 0.0 0.00 0.00 0.00 69 993.5
20260504045732 17 85 0.0 1.6 0.00 0.00 0.00 69 993.3
20260504045227 17 100 1.6 1.6 0.00 0.00 0.00 68 993.4
20260504044725 16 138 3.2 4.8 0.00 0.00 0.00 68 993.5
20260504044222 17 60 0.0 0.0 0.00 0.00 0.00 68 993.6
20260504043720 17 102 0.0 0.0 0.00 0.00 0.00 69 994.0
20260504043216 17 108 1.6 1.6 0.00 0.00 0.00 68 994.1
20260504042714 17 104 1.6 1.6 0.00 0.00 0.00 68 994.4
20260504042210 17 88 0.0 1.6 0.00 0.00 0.00 67 994.2
20260504041706 17 83 1.6 3.2 0.00 0.00 0.00 68 994.3
20260504041202 17 78 1.6 1.6 0.00 0.00 0.00 67 994.7
20260504040659 17 249 3.2 3.2 0.00 0.00 0.00 66 994.5
20260504040156 17 116 0.0 1.6 0.00 0.00 0.00 66 994.4
20260504035652 17 335 0.0 1.6 0.00 0.00 0.00 65 994.4
20260504035150 17 64 1.6 3.2 0.00 0.00 0.00 66 994.4
20260504034647 17 49 0.0 1.6 0.00 0.00 0.00 66 994.7
20260504034144 17 91 1.6 3.2 0.00 0.00 0.00 65 994.4
20260504033642 17 224 3.2 4.8 0.00 0.00 0.00 65 994.6
20260504033139 17 71 0.0 0.0 0.00 0.00 0.00 66 994.5
20260504032635 17 209 3.2 4.8 0.00 0.00 0.00 65 994.7
20260504032133 17 117 1.6 1.6 0.00 0.00 0.00 65 994.7
20260504031630 17 273 3.2 4.8 0.00 0.00 0.00 65 994.7
20260504031126 17 255 1.6 3.2 0.00 0.00 0.00 66 994.6
20260504030623 17 354 0.0 1.6 0.00 0.00 0.00 66 994.7
20260504030120 17 231 3.2 3.2 0.00 0.00 0.00 65 994.5
20260504025616 17 228 3.2 3.2 0.00 0.00 0.00 66 994.6
20260504025113 17 145 1.6 3.2 0.00 0.00 0.00 66 994.6
20260504024611 17 8 1.6 1.6 0.00 0.00 0.00 67 994.5
20260504024107 17 69 0.0 0.0 0.00 0.00 0.00 67 994.6
20260504023604 17 80 1.6 1.6 0.00 0.00 0.00 65 994.3
20260504023059 17 113 3.2 4.8 0.00 0.00 0.00 64 994.4
20260504022556 18 108 3.2 3.2 0.00 0.00 0.00 63 994.5
20260504022052 18 146 3.2 4.8 0.00 0.00 0.00 62 994.4
20260504021550 18 68 3.2 3.2 0.00 0.00 0.00 62 994.4
20260504021046 18 172 4.8 4.8 0.00 0.00 0.00 61 994.7
20260504020543 18 139 3.2 3.2 0.00 0.00 0.00 61 994.4
20260504020040 18 132 3.2 3.2 0.00 0.00 0.00 61 994.5
20260504015537 18 103 4.8 4.8 0.00 0.00 0.00 61 994.4
20260504015032 18 158 0.0 3.2 0.00 0.00 0.00 62 994.5
20260504014529 18 174 0.0 1.6 0.00 0.00 0.00 61 994.5
20260504014026 18 69 0.0 1.6 0.00 0.00 0.00 61 994.5
20260504013524 18 103 3.2 3.2 0.00 0.00 0.00 59 994.6
20260504013020 19 180 3.2 4.8 0.00 0.00 0.00 59 994.2
20260504012518 19 177 4.8 4.8 0.00 0.00 0.00 58 994.3
20260504012016 19 159 4.8 4.8 0.00 0.00 0.00 59 994.1
20260504011512 19 170 1.6 3.2 0.00 0.00 0.00 58 994.3
20260504011008 19 72 1.6 3.2 0.00 0.00 0.00 59 994.4
20260504010504 19 173 3.2 3.2 0.00 0.00 0.00 59 994.3
20260504010000 19 83 0.0 0.0 0.00 0.00 0.00 60 994.3
20260504005457 19 74 0.0 1.6 0.00 0.00 0.00 59 994.4
20260504004954 20 138 3.2 3.2 0.00 0.00 0.00 56 994.4
20260504004452 20 75 0.0 0.0 0.00 0.00 0.00 54 994.3
20260504003949 20 38 4.8 4.8 0.00 0.00 0.00 53 994.3
20260504003445 20 302 3.2 3.2 0.00 0.00 0.00 53 994.5
20260504002942 20 77 3.2 4.8 0.00 0.00 0.00 52 994.3
20260504002439 20 72 1.6 3.2 0.00 0.00 0.00 52 994.5
20260504001936 20 86 0.0 0.0 0.00 0.00 0.00 52 994.7
20260504001433 21 126 1.6 1.6 0.00 0.00 0.00 52 994.5
20260504000930 21 228 4.8 4.8 0.00 0.00 0.00 51 994.7
20260504000427 21 108 1.6 1.6 0.00 0.00 0.00 50 994.6
20260503235924 21 109 1.6 3.2 0.00 0.00 0.00 50 994.7
20260503235422 21 23 4.8 8.0 0.00 0.00 0.00 50 994.4
20260503234919 21 167 4.8 4.8 0.00 0.00 0.00 49 994.4
20260503234417 22 75 1.6 3.2 0.00 0.00 0.00 48 994.7
20260503233915 22 201 1.6 4.8 0.00 0.00 0.00 48 994.9
20260503233411 22 130 1.6 1.6 0.00 0.00 0.00 48 994.9
20260503232908 22 113 3.2 3.2 0.00 0.00 0.00 47 995.0
20260503232405 22 170 3.2 8.0 0.00 0.00 0.00 46 994.8
20260503231902 22 155 3.2 4.8 0.00 0.00 0.00 45 995.2
20260503231400 22 83 1.6 3.2 0.00 0.00 0.00 46 995.1
20260503230855 22 109 1.6 1.6 0.00 0.00 0.00 47 995.1
20260503230352 22 79 6.4 9.7 0.00 0.00 0.00 45 995.0
20260503225850 22 109 4.8 8.0 0.00 0.00 0.00 45 995.0
20260503225346 22 293 3.2 4.8 0.00 0.00 0.00 44 995.2
20260503224842 22 58 1.6 3.2 0.00 0.00 0.00 46 995.4
20260503224339 22 185 1.6 3.2 0.00 0.00 0.00 44 995.2
20260503223837 22 264 1.6 3.2 0.00 0.00 0.00 45 995.3
20260503223335 22 115 6.4 11.3 0.00 0.00 0.00 43 995.6
20260503222830 23 165 4.8 8.0 0.00 0.00 0.00 45 995.3
20260503222329 22 97 3.2 3.2 0.00 0.00 0.00 44 995.3
20260503221826 22 170 3.2 4.8 0.00 0.00 0.00 45 995.4
20260503221325 22 287 6.4 9.7 0.00 0.00 0.00 43 995.3
20260503220821 22 166 3.2 8.0 0.00 0.00 0.00 44 995.2
20260503220318 22 259 4.8 8.0 0.00 0.00 0.00 44 995.3
20260503215814 22 118 3.2 4.8 0.00 0.00 0.00 43 995.2
20260503215312 22 70 4.8 4.8 0.00 0.00 0.00 43 995.6
20260503214810 22 239 4.8 9.7 0.00 0.00 0.00 43 995.6
20260503214306 22 309 6.4 9.7 0.00 0.00 0.00 44 995.7
20260503213804 22 236 4.8 4.8 0.00 0.00 0.00 43 995.8
20260503213301 22 181 12.9 17.7 0.00 0.00 0.00 41 995.8
20260503212758 22 87 4.8 8.0 0.00 0.00 0.00 48 995.5
20260503212256 22 299 8.0 9.7 0.00 0.00 0.00 43 995.8
20260503211753 22 206 4.8 8.0 0.00 0.00 0.00 42 995.6
20260503211249 22 263 4.8 8.0 0.00 0.00 0.00 43 995.8
20260503210744 22 180 1.6 3.2 0.00 0.00 0.00 43 995.6
20260503210242 22 223 4.8 4.8 0.00 0.00 0.00 43 996.0
20260503205742 22 181 3.2 9.7 0.00 0.00 0.00 43 996.0
20260503205239 22 61 6.4 11.3 0.00 0.00 0.00 43 996.0
20260503204736 22 191 4.8 4.8 0.00 0.00 0.00 44 996.4
20260503204233 22 294 4.8 4.8 0.00 0.00 0.00 44 996.5
20260503203731 22 223 6.4 9.7 0.00 0.00 0.00 43 996.7
20260503203228 22 187 3.2 3.2 0.00 0.00 0.00 46 996.7
20260503202725 22 5 3.2 8.0 0.00 0.00 0.00 45 996.9
20260503202223 22 253 6.4 9.7 0.00 0.00 0.00 44 996.9
20260503201721 22 275 4.8 9.7 0.00 0.00 0.00 45 997.1
20260503201218 21 81 6.4 12.9 0.00 0.00 0.00 45 997.2
20260503200714 21 213 3.2 4.8 0.00 0.00 0.00 45 997.2
20260503200211 21 274 8.0 12.9 0.00 0.00 0.00 44 997.5
20260503195707 21 296 8.0 9.7 0.00 0.00 0.00 45 997.7
20260503195204 21 234 4.8 4.8 0.00 0.00 0.00 47 998.0
20260503194701 21 241 8.0 11.3 0.00 0.00 0.00 45 998.2
20260503194157 21 291 6.4 9.7 0.00 0.00 0.00 48 998.3
20260503193654 21 248 4.8 4.8 0.00 0.00 0.00 46 998.2
20260503193149 21 227 6.4 8.0 0.00 0.00 0.00 47 998.3
20260503192645 20 187 4.8 8.0 0.00 0.00 0.00 49 998.4
20260503192141 21 267 9.7 14.5 0.00 0.00 0.00 47 998.8
20260503191638 21 167 4.8 8.0 0.00 0.00 0.00 47 998.8
20260503191135 20 78 4.8 8.0 0.00 0.00 0.00 47 998.7
20260503190632 20 257 8.0 11.3 0.00 0.00 0.00 49 998.7
20260503190128 20 103 11.3 16.1 0.00 0.00 0.00 47 998.8
20260503185625 20 193 6.4 8.0 0.00 0.00 0.00 46 999.1
20260503185120 20 221 3.2 4.8 0.00 0.00 0.00 49 999.2
20260503184615 20 132 6.4 9.7 0.00 0.00 0.00 48 999.5
20260503184112 21 353 8.0 12.9 0.00 0.00 0.00 46 999.6
20260503183609 20 82 8.0 11.3 0.00 0.00 0.00 46 999.9
20260503183106 20 252 8.0 11.3 0.00 0.00 0.00 50 999.8
20260503182605 20 237 6.4 9.7 0.00 0.00 0.00 51 1000.1
20260503182102 20 191 8.0 12.9 0.00 0.00 0.00 47 1000.3
20260503181559 20 25 4.8 4.8 0.00 0.00 0.00 50 1000.4
20260503181055 20 177 4.8 4.8 0.00 0.00 0.00 49 1000.1
20260503180553 19 233 4.8 8.0 0.00 0.00 0.00 49 1000.3
20260503180050 20 248 8.0 9.7 0.00 0.00 0.00 49 1000.6
20260503175547 20 259 6.4 9.7 0.00 0.00 0.00 50 1000.4
20260503175045 19 146 9.7 12.9 0.00 0.00 0.00 50 1000.5
20260503174542 18 233 4.8 4.8 0.00 0.00 0.00 49 1000.7
20260503174038 19 254 4.8 8.0 0.00 0.00 0.00 50 1000.8
20260503173533 19 58 4.8 8.0 0.00 0.00 0.00 51 1000.8
20260503173029 18 242 8.0 11.3 0.00 0.00 0.00 52 1000.9
20260503172527 18 275 8.0 11.3 0.00 0.00 0.00 52 1001.5
20260503172024 18 235 9.7 11.3 0.00 0.00 0.00 52 1001.7
20260503171521 18 261 1.6 4.8 0.00 0.00 0.00 55 1001.5
20260503171018 18 56 3.2 8.0 0.00 0.00 0.00 54 1001.6
20260503170514 18 135 4.8 8.0 0.00 0.00 0.00 55 1001.7
20260503150906 15 241 3.2 3.2 0.00 0.00 0.00 62 1003.7
20260503150403 15 209 4.8 4.8 0.00 0.00 0.00 64 1003.5
20260503131256 11 323 4.8 8.0 0.00 0.00 0.00 75 1004.2
20260503130754 11 101 4.8 4.8 0.00 0.00 0.00 75 1004.4
20260503130251 11 117 0.0 1.6 0.00 0.00 0.00 77 1004.3
20260503120217 8 238 1.6 3.2 0.00 0.00 0.00 84 1003.8